Location: Champseau
(45.8333°N, 1.7667°E)
Time: 17:57:07
(UTC+00:00)

Envisat - Pass Details

Date: 29 September 2021
Orbit: 764 x 766 km, 98.2° (Epoch: 18 October)

Event Time Altitude Azimuth Distance (km) Brightness Sun altitude
Rises 04:47:39 0° 17° (NNE) 3,242 6.6 -11.5°
Reaches altitude 10° 04:50:01 10° 21° (NNE) 2,311 5.9 -11.0°
Maximum altitude 04:55:02 57° 100° (E) 901 3.8 -10.2°
Drops below altitude 10° 05:00:00 10° 179° (S) 2,294 5.4 -9.3°
Sets 05:02:20 0° 184° (S) 3,215 6.1 -8.9°
